Flag for U.S.A. Weather past 2 weeks in Gainesville, Florida, U.S.A.

Now
67 °F

Fog.


Feels Like: 67 °F
Forecast: 65 / 72 °F
Wind: 10 mph from East

Location: Gainesville Regional Airport

Current Time: Apr 28, 2015 at 3:11:39 AM

Latest Report: Apr 28, 2015 at 2:53 AM


Visibility: 6 mi

Pressure: 29.80 "Hg

Humidity: 93%

Dew point: 65 °F

Location of GainesvilleLocation

Historic Weather in Gainesville — Graph

°F

Gainesville temperature yesterday

Maximum temperature yesterday: 78 °F (at 12:53 PM)
Minimum temperature yesterday: 67 °F (at 11:53 PM)
Average temperature yesterday: 74 °F

Past Weeks' High & Low Weather Summary

 TemperatureHumidityPressure
High87 °F (Apr 14, 3:53 PM)100% (Apr 14, 1:53 AM)30.17 "Hg (Apr 14, 1:53 AM)
Low57 °F (Apr 22, 3:53 AM)31% (Apr 22, 5:53 PM)29.69 "Hg (Apr 26, 4:53 PM)
Average72 °F81%29.96 "Hg
* Reported Apr 13 1:53 AM — Apr 28 1:53 AM, Gainesville, Weather by CustomWeather, © 2015

Note: Actual official high and low records may vary slightly from our data, if they occured in-between our weather recording intervals... More about our weather records

Advertising

Gainesville weather history for previous 24 hours

 ConditionsComfort  
Time TempWeatherWind HumidityBarometerVisibility
1:53 AM
Tue, Apr 28
67 °FFog.7 mph97%29.79 "Hg5 mi
12:53 AM67 °FLow clouds.6 mph97%29.83 "Hg7 mi
11:53 PM
Mon, Apr 27
67 °FClear.7 mph97%29.81 "Hg7 mi
10:53 PM68 °FPassing clouds.6 mph93%29.84 "Hg8 mi
9:53 PM68 °FClear.5 mph96%29.85 "Hg9 mi
8:53 PM69 °FLight rain. Passing clouds.5 mph93%29.83 "Hg9 mi
7:53 PM69 °FLight rain. Scattered clouds.8 mph93%29.81 "Hg8 mi
6:53 PM71 °FLight rain. Partly sunny.13 mph90%29.84 "Hg7 mi
5:53 PM73 °FLight rain. Scattered clouds.9 mph84%29.81 "Hg10 mi
4:53 PM75 °FScattered clouds.10 mph82%29.81 "Hg10 mi
3:53 PM76 °FScattered clouds.9 mph80%29.81 "Hg10 mi
2:53 PM77 °FScattered clouds.6 mph77%29.81 "Hg10 mi
1:53 PM77 °FSunny.7 mph79%29.79 "Hg10 mi
12:53 PM78 °FScattered clouds.8 mph76%29.79 "Hg9 mi
11:53 AM77 °FSunny.7 mph77%29.78 "Hg10 mi
10:53 AM76 °FPassing clouds.9 mph82%29.81 "Hg8 mi
9:53 AM74 °FLight rain. Fog.8 mph91%29.81 "Hg6 mi
9:02 AM75 °FLight rain. Fog.7 mph90%29.82 "Hg3 mi
8:57 AM75 °FRain. Fog.6 mph90%29.82 "Hg2 mi
8:03 AM75 °FFog.7 mph90%29.79 "Hg5 mi
7:53 AM75 °FFog.9 mph90%29.78 "Hg5 mi
6:53 AM74 °FPassing clouds.7 mph94%29.75 "Hg7 mi
5:53 AM74 °FMostly cloudy.10 mph94%29.73 "Hg7 mi
4:53 AM74 °FClear.8 mph94%29.72 "Hg7 mi
3:53 AM74 °FClear.9 mph94%29.72 "Hg7 mi
Weather by CustomWeather, © 2015

See weather overviewHow to use our weather pages